Regional Weather Roundup
Issued by NWS

Home | Current Version | Previous Version | Graphics & Text | Print | Product List | Glossary On
Versions: 1 2 3 4 5 6 7 8 9 10 11 12 13 14 15 16 17 18 19 20 21 22 23 24 25 26 27 28 29
000
ASUS45 KGTF 240210
RWRMT
MONTANA HOURLY WEATHER ROUNDUP
NATIONAL WEATHER SERVICE GREAT FALLS MT
800 PM MDT THU APR 23 2015

NOTE: "FAIR" INDICATES FEW OR NO CLOUDS BELOW 12000 FEET WITH NO
SIGNIFICANT WEATHER AND/OR OBSTRUCTIONS TO VISIBILITY.

MTZ001>007-043-240300-
WEST OF THE DIVIDE

CITY           SKY/WX    TMP DP  RH WIND       PRES   REMARKS
KALISPELL      CLOUDY    50  29  44 NE3       29.69S
MISSOULA       CLOUDY    56  25  30 NW15      29.69S
BUTTE          PTCLDY    54  20  26 N9        29.68S
DEER LODGE       N/A     54  25  32 NW10      29.70F
EUREKA           N/A     52  28  40 SW6       29.71F
HAMILTON         N/A     57  30  35 NW13      29.66S
LIBBY            N/A     52  28  40 SE6       29.72S
$$

MTZ008-052>055-240300-
SOUTHWEST MONTANA

CITY           SKY/WX    TMP DP  RH WIND       PRES   REMARKS
BOZEMAN        PTCLDY    54  39  57 E5        29.62F
DILLON         MOCLDY    60  23  24 NW3       29.62F
$$

MTZ009-010-012-014-046-048-049-054-240300-
EAST SLOPES AND CENTRAL MONTANA

CITY           SKY/WX    TMP DP  RH WIND       PRES   REMARKS
CUT BANK       CLOUDY    50  23  34 W15       29.65S
GREAT FALLS    MOCLDY    58  22  24 W14       29.61S
MALMSTROM AFB  MOCLDY    61  20  20 W14G20    29.62R
HELENA         MOCLDY    61  22  22 W12       29.63R
$$

MTZ011-013-016-021-045-047-050-051-240300-
NORTH CENTRAL MONTANA

CITY           SKY/WX    TMP DP  RH WIND       PRES   REMARKS
HAVRE          CLOUDY    60  24  25 E3        29.62F
LEWISTOWN      CLEAR     57  35  43 E8        29.64F
CHINOOK          N/A     59  30  33 CALM      29.63S
FORT BENTON      N/A     57  27  30 NE7       29.61S
$$

MTZ017>020-022>042-056>058-061-062-240300-
EASTERN PLAINS

CITY           SKY/WX    TMP DP  RH WIND       PRES   REMARKS
BAKER          PTCLDY    57  36  45 NW3       29.67S
BILLINGS       PTCLDY    59  41  51 SE10      29.65S
GLASGOW        CLEAR     54  34  46 N6        29.67S
JORDAN           N/A     57  35  43 NE8       29.65F
LIVINGSTON     PTCLDY    57  35  43 W6        29.62F
MILES CITY     PTCLDY    59  35  40 E6        29.65S
SIDNEY         MOCLDY    52  32  46 NE9       29.69S
WOLF POINT     CLEAR     54  38  54 NE7       29.67S
FORSYTH          N/A     57  37  47 SE5       29.64F
POPLAR           N/A     48  34  57 NE12      29.68S
$$

REGIONAL REPORTS...DAKOTAS

CITY           SKY/WX    TMP DP  RH WIND       PRES   REMARKS
WILLISTON      MOCLDY    42  33  70 E7        29.73F
MINOT          CLOUDY    39  35  86 NE7       29.80F
DICKINSON      CLOUDY    52  25  35 E14       29.68S
BEACH          FAIR      48  32  53 E7        29.67S
CROSBY         CLOUDY    43  32  65 SE8       29.76F
WATFORD CITY   FAIR      41  36  81 E6        29.70S
BISMARCK       CLOUDY    52  22  30 E15       29.77S
GRAND FORKS    CLOUDY    45  20  36 E8        29.94F
FARGO          CLOUDY    48  10  21 E10       29.92F
BUFFALO SD       N/A     56  34  43 E12       29.60S
RAPID CITY     CLOUDY    53  48  83 NW6       29.61R
$$

REGIONAL REPORTS...WYOMING/IDAHO/WASHINGTON

CITY           SKY/WX    TMP DP  RH WIND       PRES   REMARKS
GILLETTE       CLOUDY    55  40  56 N13       29.70R
SHERIDAN       CLOUDY    52  44  74 E3        29.69F
BUFFALO WY     LGT RAIN  51  42  71 SW14      29.73S
CODY           MOCLDY    52  45  76 S3        29.70F
YELLOWSTONE LA   N/A     39  23  52 CALM      29.82F
IDAHO FALLS    CLEAR     59  16  18 S16       29.70F
SALMON         MOCLDY    63  34  34 N7        29.60S
BOISE          MOCLDY    64  23  21 NE5       29.67F
SPOKANE        CLOUDY    49  31  49 S13       29.74S
$$

REGIONAL REPORTS...ALBERTA

CITY           SKY/WX    TMP DP  RH WIND       PRES   REMARKS
EDMONTON       CLOUDY    41  34  75 N7        29.66F
CALGARY        MOCLDY    52  19  28 VRB2      29.60S
LETHBRIDGE     CLOUDY    52  28  40 W17G23    29.63S
MEDICINE HAT   CLOUDY    57  27  30 W12       29.61R
$$

REGIONAL REPORTS...SASKATCHEWAN

CITY           SKY/WX    TMP DP  RH WIND       PRES   REMARKS
SWIFT CURRENT  MOCLDY    54  27  35 E3        29.64F
REGINA         MOCLDY    41  30  65 SE12      29.75S
SASKATOON      MOCLDY    46  36  66 SE10      29.71S
$$



USA.gov is the U.S. government's official web portal to all federal, state and local government web resources and services.